Location: Douglas
(31.5112°N, 82.8487°W)
Time: 15:52:55
(UTC-05:00)

N. Korean satellite - Visible Passes

Search period start: 19 January 2018 00:00
Search period end: 29 January 2018 00:00
Orbit: 459 x 515 km, 97.2° (Epoch: 19 January)

Date Brightness Start Highest point End Pass type
(mag) Time Alt. Az. Time Alt. Az. Time Alt. Az.
19 Jan 9.5 19:20:28 10° SW 19:23:08 19° W 19:25:47 10° NW visible
20 Jan 7.8 06:51:39 10° NNE 06:54:57 44° E 06:58:16 10° S visible
20 Jan 8.0 18:55:59 10° S 18:59:25 41° W 19:02:50 10° NNW visible
21 Jan 9.5 06:28:39 10° NE 06:31:14 20° E 06:33:50 10° SE visible
21 Jan 6.5 18:32:09 10° SSE 18:35:46 84° E 18:39:20 10° N visible
23 Jan 9.5 19:19:18 10° SW 19:21:58 19° W 19:24:36 10° NW visible
24 Jan 7.9 06:50:27 10° NNE 06:53:46 43° E 06:57:05 10° S visible
24 Jan 8.0 18:54:50 10° S 18:58:14 42° W 19:01:37 10° NNW visible
25 Jan 9.6 06:27:27 10° NE 06:30:02 19° E 06:32:37 10° SE visible
25 Jan 6.5 18:31:01 10° SSE 18:34:35 81° ENE 18:38:07 10° N visible
27 Jan 9.5 19:18:06 10° SW 19:20:45 20° W 19:23:23 10° NW visible
28 Jan 8.0 06:49:13 10° NNE 06:52:32 41° E 06:55:52 10° S visible
28 Jan 7.9 18:53:38 10° S 18:57:01 43° W 19:00:22 10° NNW visible
